Voltar ao catálogo

USA 423

AtivoMilitarVLEO
NORAD 61646·PAYLOAD·🇺🇸 United States

Lançado Oct 24, 2024 de Vandenberg Space Force Base

Loading…

Próximas Passagens (próximas 24 horas)

TLE

ObsoletoSource: Mike McCants

Época: Aug 11, 2026, 19:35 UTC

1 61646U 24192C   26223.81602902 0.00000000  00000-0  00000-0 0    07
2 61646  70.0167 112.3707 0004000 231.1279 128.8720 14.96713499    07

Acompanhe USA 423 em tempo real com AllMySat

Download on the App Store